TimeCDT,TemperatureF,Dew PointF,Humidity,Sea Level PressureIn,VisibilityMPH,Wind Direction,Wind SpeedMPH,Gust SpeedMPH,PrecipitationIn,Events,Conditions,WindDirDegrees,DateUTC
12:53 AM,41.0,28.9,62,30.17,10.0,West,16.1,-,N/A,,Overcast,270,2012-10-05 05:53:00
1:53 AM,39.9,27.0,60,30.17,10.0,WNW,21.9,32.2,N/A,,Overcast,290,2012-10-05 06:53:00
2:53 AM,39.2,26.6,61,30.12,10.0,West,11.5,20.7,N/A,,Overcast,280,2012-10-05 07:53:00
3:53 AM,37.9,26.1,62,30.16,10.0,West,18.4,25.3,N/A,,Overcast,280,2012-10-05 08:53:00
4:53 AM,36.0,26.1,67,30.16,10.0,West,12.7,-,N/A,,Mostly Cloudy,260,2012-10-05 09:53:00
5:41 AM,35.6,26.6,70,30.11,10.0,West,12.7,-,N/A,,Overcast,270,2012-10-05 10:41:00
5:53 AM,36.0,26.1,67,30.16,10.0,West,10.4,19.6,N/A,,Overcast,260,2012-10-05 10:53:00
6:53 AM,34.0,26.1,73,30.16,10.0,West,15.0,18.4,N/A,,Mostly Cloudy,270,2012-10-05 11:53:00
7:53 AM,34.0,26.1,73,30.16,10.0,West,12.7,-,N/A,,Overcast,270,2012-10-05 12:53:00
8:53 AM,36.0,26.1,67,30.17,10.0,West,18.4,24.2,N/A,,Mostly Cloudy,280,2012-10-05 13:53:00
9:53 AM,37.0,26.1,65,30.19,10.0,WNW,16.1,-,N/A,,Overcast,290,2012-10-05 14:53:00
10:53 AM,39.0,25.0,57,30.18,10.0,WNW,23.0,31.1,N/A,,Mostly Cloudy,300,2012-10-05 15:53:00
11:30 AM,39.2,24.8,56,30.12,10.0,NW,25.3,31.1,N/A,,Overcast,310,2012-10-05 16:30:00
11:53 AM,39.9,24.1,53,30.17,10.0,WNW,25.3,32.2,N/A,,Overcast,290,2012-10-05 16:53:00
12:53 PM,41.0,24.1,51,30.17,10.0,WNW,23.0,34.5,N/A,,Overcast,300,2012-10-05 17:53:00
1:53 PM,41.0,24.1,51,30.16,10.0,WNW,19.6,35.7,N/A,,Overcast,290,2012-10-05 18:53:00
2:53 PM,42.1,24.1,49,30.16,10.0,WNW,18.4,32.2,N/A,,Overcast,300,2012-10-05 19:53:00
3:53 PM,42.1,24.1,49,30.17,10.0,NW,18.4,25.3,N/A,,Overcast,310,2012-10-05 20:53:00
4:53 PM,41.0,24.1,51,30.17,10.0,WNW,21.9,31.1,N/A,,Overcast,300,2012-10-05 21:53:00
5:53 PM,41.0,25.0,53,30.17,10.0,WNW,24.2,29.9,N/A,,Overcast,290,2012-10-05 22:53:00
6:53 PM,39.9,25.0,55,30.18,10.0,WNW,21.9,29.9,N/A,,Overcast,300,2012-10-05 23:53:00
7:53 PM,39.0,26.1,60,30.20,10.0,NW,15.0,-,N/A,,Overcast,310,2012-10-06 00:53:00
8:53 PM,37.9,25.0,60,30.21,10.0,WNW,15.0,24.2,N/A,,Overcast,300,2012-10-06 01:53:00
9:53 PM,37.0,26.1,65,30.21,10.0,WNW,16.1,24.2,N/A,,Overcast,300,2012-10-06 02:53:00
10:53 PM,36.0,26.1,67,30.21,10.0,WNW,16.1,25.3,N/A,,Overcast,300,2012-10-06 03:53:00
11:53 PM,36.0,26.1,67,30.21,10.0,WNW,13.8,-,N/A,,Overcast,300,2012-10-06 04:53:00